Simultaneous Nadir Overpasses (SNOs) Predictions

Prediction of SNOs between METOP-B and NOAA-19 Satellite Orbit:

Table of predicted SNOs for the next 14.0 days since TLE Epoch: 12/4/2016
Index Date (METOP-B) Time (METOP-B) Lat,Lon (METOP-B) SZA (METOP-B ) Date (NOAA-19) Time (NOAA-19) Lat,Lon (NOAA-19) SZA (NOAA-19 ) Distance(km) Time Diff (sec)
1 12/14/2016 02:41:41 -76.88, -36.70 79.93 12/14/2016 02:40:31 -76.89, -38.71 79.95 50.61 70
2 12/14/2016 03:32:26 76.63, 129.69 99.82 12/14/2016 03:31:26 76.64, 129.59 99.82 2.55 60
3 12/14/2016 04:23:09 -76.59, -63.14 80.23 12/14/2016 04:22:26 -76.60, -63.00 80.22 3.72 43
4 12/14/2016 05:13:48 76.62, 104.28 99.80 12/14/2016 05:13:27 76.60, 104.23 99.79 2.12 21
5 12/14/2016 06:04:31 -76.57, -88.55 80.24 12/14/2016 06:04:28 -76.61, -88.54 80.21 3.62 3
6
